PAL2785 RPMR-RPVP

Flight info

Callsign PAL2785
Flight time N/A
Altitude 36000
Route SEBUL4R SEBUL W20 ZAM A583 MARAN W17 ZENNY DCT
Aircraft A321/M-SDE3FGHIRWY/LB1

Departure

Time N/A
Airport General Santos International Airport (RPMR)

Arrival

Time 2026-04-30 07:21
Airport Puerto Princesa International Airport / PAF Antonio Bautista Air Base (RPVP)
Time Latitude Longitude Altitude Speed Heading
2026-04-30 06:16 6.86515 122.27139 35882 ft 444 kts 286°
2026-04-30 06:25 6.86715 122.26417 35882 ft 444 kts 286°
2026-04-30 06:25 6.88392 122.20348 35882 ft 444 kts 286°
2026-04-30 06:26 6.90079 122.14333 35879 ft 444 kts 289°
2026-04-30 06:26 6.92817 122.08692 35881 ft 443 kts 305°
2026-04-30 06:27 6.96937 122.04082 35881 ft 442 kts 321°
2026-04-30 06:27 7.02117 122.00754 35884 ft 441 kts 333°
2026-04-30 06:28 7.07694 121.98031 35882 ft 441 kts 334°
2026-04-30 06:28 7.13269 121.95322 35882 ft 441 kts 334°
2026-04-30 06:29 7.18807 121.92606 35882 ft 441 kts 334°
2026-04-30 06:29 7.24379 121.89863 35882 ft 441 kts 334°
2026-04-30 06:30 7.29926 121.87131 35882 ft 441 kts 334°
2026-04-30 06:30 7.35485 121.84401 35882 ft 441 kts 334°
2026-04-30 06:31 7.41041 121.81670 35882 ft 441 kts 334°
2026-04-30 06:31 7.46589 121.78941 35882 ft 441 kts 334°
2026-04-30 06:32 7.52126 121.76217 35881 ft 441 kts 334°
2026-04-30 06:32 7.57699 121.73473 35882 ft 441 kts 334°
2026-04-30 06:33 7.63281 121.70724 35882 ft 441 kts 334°
2026-04-30 06:33 7.68838 121.67986 35881 ft 441 kts 334°
2026-04-30 06:34 7.74373 121.65259 35881 ft 441 kts 334°
2026-04-30 06:34 7.79945 121.62511 35882 ft 441 kts 334°
2026-04-30 06:35 7.85513 121.59766 35882 ft 441 kts 334°
2026-04-30 06:35 7.91093 121.57014 35882 ft 441 kts 334°
2026-04-30 06:36 7.96618 121.54288 35882 ft 441 kts 334°
2026-04-30 06:36 8.02200 121.51533 35882 ft 441 kts 334°
2026-04-30 06:37 8.07744 121.48795 35882 ft 441 kts 334°
2026-04-30 06:37 8.13292 121.46056 35882 ft 441 kts 334°
2026-04-30 06:38 8.18855 121.43309 35882 ft 441 kts 334°
2026-04-30 06:38 8.24391 121.40574 35882 ft 441 kts 334°
2026-04-30 06:39 8.29931 121.37835 35882 ft 441 kts 334°
2026-04-30 06:39 8.35482 121.35090 35882 ft 441 kts 334°
2026-04-30 06:40 8.41014 121.32354 35882 ft 441 kts 334°
2026-04-30 06:40 8.46569 121.29605 35882 ft 441 kts 334°
2026-04-30 06:41 8.52130 121.26853 35882 ft 440 kts 334°
2026-04-30 06:41 8.57672 121.24110 35882 ft 440 kts 334°
2026-04-30 06:42 8.63217 121.21363 35882 ft 440 kts 334°
2026-04-30 06:42 8.68772 121.18611 35882 ft 440 kts 334°
2026-04-30 06:43 8.74327 121.15857 35882 ft 440 kts 334°
2026-04-30 06:43 8.79851 121.13118 35882 ft 439 kts 334°
2026-04-30 06:44 8.85368 121.10381 35882 ft 438 kts 334°
2026-04-30 06:44 8.90864 121.07655 35881 ft 438 kts 334°
2026-04-30 06:45 8.96372 121.04923 35872 ft 437 kts 334°
2026-04-30 06:45 9.01914 121.02169 35868 ft 438 kts 335°
2026-04-30 06:46 9.07427 120.99432 35868 ft 440 kts 335°
2026-04-30 06:46 9.12995 120.96667 35873 ft 443 kts 335°
2026-04-30 06:47 9.18565 120.93901 35878 ft 443 kts 335°
2026-04-30 06:47 9.24153 120.91123 35881 ft 443 kts 335°
2026-04-30 06:48 9.29741 120.88345 35882 ft 443 kts 335°
2026-04-30 06:48 9.35294 120.85582 35882 ft 443 kts 335°
2026-04-30 06:49 9.40813 120.82835 35882 ft 443 kts 335°
2026-04-30 06:49 9.46194 120.80156 35882 ft 443 kts 335°
2026-04-30 06:50 9.51719 120.77405 35882 ft 443 kts 335°
2026-04-30 06:50 9.57224 120.74662 35882 ft 443 kts 335°
2026-04-30 06:51 9.62761 120.71903 35882 ft 443 kts 335°
2026-04-30 06:51 9.68256 120.69161 35882 ft 443 kts 335°
2026-04-30 06:52 9.73784 120.66403 35882 ft 443 kts 335°
2026-04-30 06:52 9.79285 120.63661 35882 ft 443 kts 335°
2026-04-30 06:53 9.84811 120.60904 35882 ft 443 kts 335°
2026-04-30 06:53 9.87591 120.59515 35716 ft 443 kts 335°
2026-04-30 06:53 9.90330 120.58147 35474 ft 446 kts 335°
2026-04-30 06:53 9.93115 120.56756 35225 ft 451 kts 335°
2026-04-30 06:54 9.95928 120.55351 34977 ft 455 kts 335°
2026-04-30 06:54 9.98779 120.53925 34723 ft 457 kts 335°
2026-04-30 06:54 10.01590 120.52518 34447 ft 448 kts 335°
2026-04-30 06:54 10.04365 120.51129 34051 ft 442 kts 335°
2026-04-30 06:55 10.07107 120.49757 33534 ft 439 kts 335°
2026-04-30 06:55 10.09836 120.48392 32930 ft 439 kts 335°
2026-04-30 06:55 10.12557 120.47027 32286 ft 440 kts 334°
2026-04-30 06:55 10.15127 120.45339 31596 ft 443 kts 322°
2026-04-30 06:56 10.17270 120.43160 30986 ft 444 kts 309°
2026-04-30 06:56 10.18936 120.40540 30546 ft 440 kts 297°
2026-04-30 06:56 10.20023 120.37652 30076 ft 438 kts 285°
2026-04-30 06:56 10.20495 120.34604 29550 ft 436 kts 274°
2026-04-30 06:57 10.20338 120.31552 29052 ft 435 kts 261°
2026-04-30 06:57 10.19634 120.28606 28593 ft 431 kts 255°
2026-04-30 06:57 10.18771 120.25732 28187 ft 427 kts 253°
2026-04-30 06:57 10.17878 120.22845 27782 ft 424 kts 253°
2026-04-30 06:58 10.17007 120.20012 27348 ft 421 kts 254°
2026-04-30 06:58 10.16143 120.17172 26897 ft 418 kts 254°
2026-04-30 06:58 10.15307 120.14404 26450 ft 414 kts 254°
2026-04-30 06:58 10.14466 120.11603 25992 ft 411 kts 254°
2026-04-30 06:59 10.13645 120.08862 25540 ft 408 kts 254°
2026-04-30 06:59 10.12821 120.06109 25084 ft 404 kts 254°
2026-04-30 06:59 10.12015 120.03410 24631 ft 401 kts 255°
2026-04-30 06:59 10.11210 120.00717 24178 ft 398 kts 255°
2026-04-30 07:00 10.10415 119.98058 23726 ft 395 kts 255°
2026-04-30 07:00 10.09614 119.95381 23269 ft 392 kts 255°
2026-04-30 07:00 10.08833 119.92771 22820 ft 389 kts 255°
2026-04-30 07:00 10.08058 119.90177 22372 ft 386 kts 255°
2026-04-30 07:01 10.07282 119.87579 21920 ft 383 kts 255°
2026-04-30 07:01 10.06519 119.85020 21472 ft 380 kts 255°
2026-04-30 07:01 10.05756 119.82458 21020 ft 377 kts 255°
2026-04-30 07:01 10.05000 119.79919 20568 ft 374 kts 255°
2026-04-30 07:02 10.04259 119.77428 20121 ft 371 kts 255°
2026-04-30 07:02 10.03515 119.74921 19669 ft 368 kts 255°
2026-04-30 07:02 10.02781 119.72443 19218 ft 366 kts 255°
2026-04-30 07:02 10.02051 119.69974 18767 ft 363 kts 255°
2026-04-30 07:03 10.01340 119.67561 18322 ft 361 kts 255°
2026-04-30 07:03 10.00620 119.65112 17868 ft 359 kts 255°
2026-04-30 07:03 9.99916 119.62708 17420 ft 356 kts 255°
2026-04-30 07:03 9.99216 119.60306 16969 ft 354 kts 255°
2026-04-30 07:04 9.98521 119.57916 16518 ft 352 kts 255°
2026-04-30 07:04 9.97842 119.55566 16072 ft 350 kts 255°
2026-04-30 07:04 9.97160 119.53196 15620 ft 348 kts 255°
2026-04-30 07:04 9.96486 119.50841 15168 ft 346 kts 255°
2026-04-30 07:05 9.95169 119.46201 14270 ft 342 kts 255°
2026-04-30 07:05 9.94525 119.43909 13823 ft 340 kts 255°
2026-04-30 07:05 9.93876 119.41588 13368 ft 338 kts 255°
2026-04-30 07:06 9.93247 119.39322 12922 ft 336 kts 255°
2026-04-30 07:06 9.92627 119.37075 12480 ft 329 kts 255°
2026-04-30 07:06 9.92020 119.34859 12027 ft 320 kts 255°
2026-04-30 07:06 9.91437 119.32709 11577 ft 318 kts 255°
2026-04-30 07:07 9.90855 119.30540 11121 ft 310 kts 254°
2026-04-30 07:07 9.90074 119.28532 10665 ft 304 kts 242°
2026-04-30 07:07 9.89032 119.26651 10207 ft 305 kts 239°
2026-04-30 07:07 9.87955 119.24815 9906 ft 300 kts 238°
2026-04-30 07:08 9.86892 119.23012 9880 ft 285 kts 238°
2026-04-30 07:08 9.85896 119.21326 9876 ft 271 kts 237°
2026-04-30 07:08 9.84801 119.19826 9875 ft 256 kts 230°
2026-04-30 07:08 9.83673 119.18477 9871 ft 241 kts 229°
2026-04-30 07:09 9.82587 119.17212 9872 ft 233 kts 229°
2026-04-30 07:09 9.81505 119.15958 9878 ft 233 kts 229°
2026-04-30 07:09 9.80444 119.14729 9880 ft 233 kts 229°
2026-04-30 07:09 9.79342 119.13503 9877 ft 233 kts 220°
2026-04-30 07:10 9.77969 119.12695 9882 ft 234 kts 203°
2026-04-30 07:10 9.76438 119.12133 9885 ft 234 kts 199°
2026-04-30 07:10 9.74879 119.11624 9883 ft 234 kts 199°
2026-04-30 07:10 9.73461 119.10875 9860 ft 232 kts 225°
2026-04-30 07:11 9.72612 119.09472 9872 ft 234 kts 255°
2026-04-30 07:11 9.72408 119.07864 9895 ft 235 kts 266°
2026-04-30 07:11 9.72413 119.06169 9886 ft 236 kts 272°
2026-04-30 07:11 9.72560 119.04497 9885 ft 236 kts 274°
2026-04-30 07:12 9.72712 119.02839 9865 ft 236 kts 273°
2026-04-30 07:12 9.72856 119.01162 9672 ft 236 kts 273°
2026-04-30 07:12 9.72999 118.99522 9513 ft 230 kts 273°
2026-04-30 07:12 9.73118 118.97947 9393 ft 216 kts 271°
2026-04-30 07:13 9.73233 118.96441 9178 ft 207 kts 272°
2026-04-30 07:13 9.73348 118.95017 8964 ft 197 kts 272°
2026-04-30 07:13 9.73466 118.93648 8742 ft 189 kts 272°
2026-04-30 07:13 9.73583 118.92361 8478 ft 181 kts 272°
2026-04-30 07:14 9.73706 118.91057 8032 ft 184 kts 272°
2026-04-30 07:14 9.73832 118.89758 7563 ft 189 kts 272°
2026-04-30 07:14 9.73952 118.88520 7107 ft 194 kts 272°
2026-04-30 07:14 9.74093 118.87077 6592 ft 196 kts 272°
2026-04-30 07:15 9.74229 118.85703 6112 ft 195 kts 272°
2026-04-30 07:15 9.74365 118.84322 5629 ft 195 kts 272°
2026-04-30 07:15 9.74498 118.82958 5152 ft 195 kts 272°
2026-04-30 07:15 9.74628 118.81604 4679 ft 195 kts 272°
2026-04-30 07:16 9.74754 118.80250 4312 ft 189 kts 272°
2026-04-30 07:16 9.75011 118.78957 3979 ft 183 kts 293°
2026-04-30 07:16 9.75707 118.77903 3673 ft 176 kts 307°
2026-04-30 07:16 9.76459 118.76953 3360 ft 170 kts 309°
2026-04-30 07:17 9.77214 118.76011 3069 ft 168 kts 309°
2026-04-30 07:17 9.77949 118.75088 2794 ft 168 kts 309°
2026-04-30 07:17 9.79409 118.73221 2255 ft 166 kts 309°
2026-04-30 07:18 9.80040 118.72236 2191 ft 166 kts 291°
2026-04-30 07:18 9.80284 118.71088 2086 ft 165 kts 265°
2026-04-30 07:18 9.79905 118.70031 1943 ft 157 kts 228°
2026-04-30 07:18 9.79084 118.69334 1846 ft 151 kts 199°
2026-04-30 07:19 9.78086 118.69025 1752 ft 147 kts 184°
2026-04-30 07:19 9.77074 118.68893 1652 ft 146 kts 179°
2026-04-30 07:19 9.76071 118.68806 1553 ft 146 kts 178°
2026-04-30 07:19 9.75126 118.68977 1420 ft 137 kts 136°
2026-04-30 07:20 9.74728 118.69826 1165 ft 135 kts 96°
2026-04-30 07:20 9.74668 118.70768 903 ft 134 kts 94°
2026-04-30 07:20 9.74545 118.71706 793 ft 133 kts 102°
2026-04-30 07:20 9.74361 118.72629 610 ft 135 kts 94°
2026-04-30 07:21 9.74313 118.73572 375 ft 132 kts 91°
2026-04-30 07:21 9.74270 118.74493 166 ft 132 kts 91°
2026-04-30 07:21 9.74232 118.75391 77 ft 105 kts 93°
2026-04-30 07:21 9.74199 118.75841 77 ft 31 kts 92°
2026-04-30 07:22 9.74207 118.75929 77 ft 7 kts 274°
2026-04-30 07:22 9.74210 118.75816 77 ft 21 kts 272°
2026-04-30 07:22 9.74216 118.75671 77 ft 20 kts 272°
2026-04-30 07:23 9.74223 118.75527 77 ft 19 kts 273°
2026-04-30 07:23 9.74229 118.75389 77 ft 19 kts 272°
2026-04-30 07:23 9.74258 118.75265 77 ft 18 kts 327°
2026-04-30 07:23 9.74356 118.75256 77 ft 8 kts
2026-04-30 07:24 9.74402 118.75221 77 ft 9 kts 288°
2026-04-30 07:24 9.74408 118.75153 77 ft 10 kts 271°
2026-04-30 07:24 9.74411 118.75080 77 ft 10 kts 274°
2026-04-30 07:24 9.74428 118.75007 77 ft 9 kts 318°
2026-04-30 07:25 9.74471 118.74996 77 ft 3 kts
2026-04-30 07:25 9.74496 118.74997 77 ft 2 kts
2026-04-30 07:25 9.74507 118.74998 77 ft 0 kts